Location: Banios
(43.0451°N, 0.2335°E)
Time: 11:58:43
(UTC+00:00)

Envisat - Pass Details

Date: 14 December 2021
Orbit: 764 x 766 km, 98.2° (Epoch: 28 January)

Event Time Altitude Azimuth Distance (km) Brightness Sun altitude
Rises 04:20:23 0° 21° (NNE) 3,242 6.5 -32.3°
Reaches altitude 10° 04:22:53 10° 30° (NNE) 2,311 5.7 -31.9°
Maximum altitude 04:27:34 36° 97° (E) 1,193 4.4 -31.0°
Drops below altitude 10° 04:32:12 10° 164° (SSE) 2,294 5.7 -30.2°
Sets 04:34:40 0° 172° (S) 3,215 6.4 -29.7°
